Weather History for KCNK - April, 2013

Change the Weather History Date:

Sunday, April 21, 2013

  Actual Average Record
Temperature  
Mean Temperature 57 °F 55 °F  
Max Temperature 70 °F 67 °F 93 °F (1989)
Min Temperature 44 °F 43 °F 24 °F (1966)
Degree Days  
Heating Degree Days 8 11  
Month to date heating degree days 402 289  
Since 1 July heating degree days 5238 5180  
Cooling Degree Days 0 1  
Month to date cooling degree days 0 6  
Year to date cooling degree days 0 7  
Growing Degree Days 7 (Base 50)    
Moisture  
Dew Point 40 °F    
Average Humidity 56    
Maximum Humidity 76    
Minimum Humidity 36    
Precipitation  
Precipitation T in 0.09 in 0.86 in (1968)
Month to date precipitation 2.80 1.61  
Year to date precipitation 5.17 4.99  
Snow  
Snow 0.00 in 0.00 in 0.50 in (1992)
Month to date snowfall 0.2 0.5  
Year to date snowfall 18.1 13.7  
Since 1 July snowfall 26.6 20.2  
Snow Depth 0.00 in    
Sea Level Pressure  
Sea Level Pressure 30.04 in    
Wind  
Wind Speed 15 mph (South)    
Max Wind Speed 31 mph    
Max Gust Speed 39 mph    
Visibility 10 miles    
Events Thunderstorm    
T = Trace of Precipitation, MM = Missing Value Source: NWS Daily Summary

Daily Weather History Graph

Daily Weather History Graph

Search for Another Location

Airport or City:

Trip Planner

Search our weather history database for the weather conditions in past years. The results will help you decide how hot, cold, wet, or windy it might be!

Date:

Astronomy

Apr. 21, 2013 Rise Set
Actual Time 6:44 AM CDT 8:14 PM CDT
Civil Twilight 6:16 AM CDT 8:43 PM CDT
Nautical Twilight 5:42 AM CDT 9:17 PM CDT
Astronomical Twilight 5:06 AM CDT 9:53 PM CDT
Moon 4:02 PM CDT (4/21) 4:06 AM CDT (4/21)
Length of Visible Light 14h 27m
Length of Day
13h 30m
Waxing Gibbous, 80% of the Moon is Illuminated
Apr 21
Waxing Gibbous
Apr 25
Full
May 2
Last Quarter
May 9
New
May 17
First Quarter

Hourly Weather History & Observations

Time (CDT) Temp. Windchill Dew Point Humidity Pressure Visibility Wind Dir Wind Speed Gust Speed Precip Events Conditions
12:55 AM 48.0 °F - 37.0 °F 66% 30.07 in 10.0 mi SE 11.5 mph - N/A   Overcast
1:55 AM 48.9 °F - 37.9 °F 66% 30.07 in 10.0 mi SE 12.7 mph - N/A   Overcast
2:55 AM 50.0 °F - 39.0 °F 66% 30.05 in 10.0 mi SSE 15.0 mph - N/A   Overcast
3:55 AM 46.0 °F 41.4 °F 37.9 °F 73% 30.05 in 10.0 mi SSE 9.2 mph - N/A   Partly Cloudy
4:55 AM 45.0 °F 40.6 °F 37.9 °F 76% 30.06 in 10.0 mi SE 8.1 mph - N/A   Scattered Clouds
5:55 AM 45.0 °F 41.2 °F 37.9 °F 76% 30.06 in 10.0 mi SE 6.9 mph - N/A   Overcast
6:55 AM 48.0 °F - 37.9 °F 68% 30.07 in 10.0 mi SSE 9.2 mph - N/A   Overcast
7:55 AM 48.9 °F - 37.9 °F 66% 30.09 in 10.0 mi SSE 11.5 mph - N/A   Mostly Cloudy
8:55 AM 55.0 °F - 37.9 °F 53% 30.09 in 10.0 mi South 18.4 mph 25.3 mph N/A   Clear
9:55 AM 59.0 °F - 37.0 °F 44% 30.09 in 10.0 mi South 24.2 mph 35.7 mph N/A   Clear
10:55 AM 62.1 °F - 37.9 °F 41% 30.08 in 10.0 mi South 21.9 mph 35.7 mph N/A   Clear
11:55 AM 64.9 °F - 37.0 °F 36% 30.07 in 10.0 mi SSW 27.6 mph 39.1 mph N/A   Clear
12:55 PM 66.9 °F - 39.9 °F 37% 30.06 in 10.0 mi SSW 19.6 mph 31.1 mph N/A   Partly Cloudy
1:55 PM 66.0 °F - 41.0 °F 40% 30.03 in 10.0 mi SSW 24.2 mph 29.9 mph N/A   Partly Cloudy
2:55 PM 68.0 °F - 41.0 °F 37% 30.02 in 10.0 mi SSW 20.7 mph 31.1 mph N/A   Mostly Cloudy
3:55 PM 69.1 °F - 41.0 °F 36% 30.00 in 10.0 mi SSW 16.1 mph 27.6 mph N/A   Scattered Clouds
4:55 PM 69.1 °F - 41.0 °F 36% 30.00 in 10.0 mi South 19.6 mph 26.5 mph N/A   Partly Cloudy
5:55 PM 68.0 °F - 42.1 °F 39% 29.99 in 10.0 mi South 13.8 mph - N/A   Partly Cloudy
6:55 PM 64.9 °F - 42.1 °F 43% 29.99 in 10.0 mi South 13.8 mph - N/A   Clear
7:55 PM 61.0 °F - 43.0 °F 52% 30.01 in 10.0 mi South 12.7 mph - N/A   Clear
8:55 PM 57.9 °F - 42.1 °F 56% 30.01 in 10.0 mi South 10.4 mph - N/A   Scattered Clouds
9:55 PM 57.9 °F - 42.1 °F 56% 30.04 in 10.0 mi South 11.5 mph - N/A Thunderstorm Overcast
10:22 PM 57.2 °F - 42.8 °F 59% 30.05 in 10.0 mi South 11.5 mph - 0.00 in   Overcast
10:55 PM 57.9 °F - 42.1 °F 56% 30.03 in 10.0 mi SSE 13.8 mph - 0.00 in   Mostly Cloudy
11:55 PM 55.0 °F - 42.1 °F 62% 30.01 in 10.0 mi South 13.8 mph - N/A   Clear